Terug naar catalogus

ORBCOMM FM 4

ActiefCommunicatieLEO
NORAD 25159·PAYLOAD·🇺🇸 United States

Gelanceerd Feb 10, 1998 vanaf Vandenberg Space Force Base

Loading…

Volgende Passages (komende 24 uur)

TLE

VersSource: Space-Track

Epoch: Sep 13, 2026, 22:42 UTC

1 25159U 98007C   26256.94637612  .00000605  00000-0  25195-3 0  9991
2 25159 107.9604 352.1001 0040594 173.7935 186.3716 14.35861776489337

Volg ORBCOMM FM 4 in realtime met AllMySat

Download on the App Store